This is the latest recevied weather packets stored in our database for station/object WC4PEM-13. If no packets are shown the sender has not sent any weather packets the latest 1 day(s).
| Time | Temp. | Humidity | Pressure | Rain* | Wind** | Luminosity | Snow |
|---|---|---|---|---|---|---|---|
| 1778027848 | 23.33° C | 68% | 1015.4 hPa | 0 mm | 1.34 m/s, 90° | - | - |
| 1778027548 | 23.33° C | 68% | 1015.3 hPa | 0 mm | 0.89 m/s, 90° | - | - |
| 1778027248 | 23.89° C | 69% | 1015.2 hPa | 0 mm | 0.89 m/s, 76° | - | - |
| 1778026948 | 23.89° C | 68% | 1015 hPa | 0 mm | 1.34 m/s, 88° | - | - |
| 1778026648 | 23.89° C | 68% | 1015 hPa | 0 mm | 2.24 m/s, 87° | - | - |
| 1778026348 | 24.44° C | 66% | 1014.8 hPa | 0 mm | 2.24 m/s, 92° | - | - |
| 1778026048 | 24.44° C | 65% | 1014.8 hPa | 0 mm | 2.24 m/s, 93° | - | - |
| 1778025748 | 24.44° C | 66% | 1014.8 hPa | 0 mm | 2.24 m/s, 93° | - | - |
| 1778025448 | 25° C | 64% | 1014.8 hPa | 0 mm | 2.24 m/s, 90° | - | - |
| 1778025148 | 25° C | 63% | 1014.7 hPa | 0 mm | 1.79 m/s, 92° | - | - |
| 1778024848 | 25° C | 62% | 1014.9 hPa | 0 mm | 2.24 m/s, 93° | - | - |
| 1778024548 | 25.56° C | 62% | 1014.9 hPa | 0 mm | 2.24 m/s, 87° | - | - |
| 1778024248 | 25.56° C | 62% | 1014.8 hPa | 0 mm | 2.24 m/s, 88° | - | - |
| 1778023948 | 25.56° C | 62% | 1014.8 hPa | 0 mm | 2.68 m/s, 90° | - | - |
| 1778023648 | 26.11° C | 61% | 1014.9 hPa | 0 mm | 3.13 m/s, 82° | - | - |
| 1778023348 | 26.11° C | 61% | 1014.8 hPa | 0 mm | 2.68 m/s, 88° | - | - |
| 1778023048 | 26.11° C | 61% | 1014.7 hPa | 0 mm | 2.68 m/s, 93° | - | - |
| 1778022748 | 26.67° C | 60% | 1014.8 hPa | 0 mm | 3.13 m/s, 92° | - | - |
| 1778022448 | 26.67° C | 60% | 1014.8 hPa | 0 mm | 2.68 m/s, 90° | - | - |
| 1778022148 | 27.22° C | 60% | 1014.9 hPa | 0 mm | 3.13 m/s, 92° | - | - |
| 1778021848 | 27.22° C | 60% | 1014.8 hPa | 0 mm | 2.68 m/s, 93° | - | - |
| 1778021548 | 27.78° C | 59% | 1014.7 hPa | 0 mm | 2.68 m/s, 92° | - | - |
| 1778021248 | 27.78° C | 60% | 1014.8 hPa | 0 mm | 2.68 m/s, 93° | - | - |
| 1778020948 | 27.78° C | 60% | 1014.6 hPa | 0 mm | 2.68 m/s, 90° | - | - |
| 1778020648 | 27.78° C | 59% | 1014.6 hPa | 0 mm | 3.13 m/s, 93° | - | - |
* Rain latest hour (hover to see other rain measurements)
** Current wind speed in m/s (hover to see current wind gust speed)